Location: La Comballaz
(46.3780°N, 7.0817°E)
Time: 08:58:05
(UTC+00:00)

Gurwin Techsat 1B - Visible Passes

Search period start: 09 May 2021 00:00
Search period end: 19 May 2021 00:00
Orbit: 812 x 814 km, 98.8° (Epoch: 08 May)

Date Brightness Start Highest point End Pass type
(mag) Time Alt. Az. Time Alt. Az. Time Alt. Az.
09 May 11.1 00:07:38 10° ENE 00:08:21 10° E 00:09:04 10° E visible
09 May 8.7 01:43:49 10° NNE 01:49:10 75° ESE 01:52:03 28° S visible
09 May 10.3 03:24:56 10° NNW 03:28:30 18° WNW 03:32:02 10° W visible
10 May 9.3 01:21:03 10° NNE 01:26:12 48° E 01:28:56 26° SSE visible
10 May 9.8 03:01:29 10° N 03:05:53 27° WNW 03:10:09 10° WSW visible
11 May 10.0 00:58:28 10° NNE 01:03:11 31° E 01:05:50 20° SE visible
11 May 9.3 02:38:14 10° N 02:43:11 40° WNW 02:47:03 16° SW visible
12 May 10.6 00:36:12 10° NE 00:40:03 20° E 00:42:44 14° SE visible
12 May 8.8 02:15:09 10° N 02:20:24 61° WNW 02:23:55 21° SW visible
13 May 11.0 00:14:39 10° ENE 00:16:51 12° E 00:19:02 10° ESE visible
13 May 8.6 01:52:11 10° NNE 01:57:33 87° ESE 02:00:49 24° SSW visible
14 May 9.1 01:29:22 10° NNE 01:34:38 56° E 01:37:42 24° S visible
14 May 10.0 03:10:02 10° N 03:14:10 24° WNW 03:18:18 10° WSW visible
15 May 9.7 01:06:43 10° NNE 01:11:37 36° E 01:14:36 20° SSE visible
15 May 9.5 02:46:43 10° N 02:51:30 35° WNW 02:55:48 12° SW visible
16 May 10.4 00:44:19 10° NE 00:48:32 23° E 00:51:28 15° SE visible
16 May 8.9 02:23:35 10° N 02:28:45 52° WNW 02:32:41 17° SW visible
17 May 10.9 00:22:24 10° NE 00:25:22 15° E 00:28:19 10° ESE visible
17 May 8.6 02:00:35 10° NNE 02:05:55 81° WNW 02:09:33 21° SSW visible
18 May 8.8 01:37:42 10° NNE 01:43:02 66° ESE 01:46:26 22° S visible
